Hampden Park (Glasgow), United Kingdom

1:07 PM BST on August 17, 2017 (GMT +0100)
Hampden Park (Glasgow)

Weather History for 03140 - April, 2014

Change the Weather History Date:

Friday, April 18, 2014

  Actual Average Record
Temperature  
Mean Temperature 42 °F -  
Max Temperature 57 °F 55 °F - ()
Min Temperature 28 °F 40 °F - ()
Degree Days  
Heating Degree Days 22    
Moisture  
Dew Point 32 °F    
Average Humidity 67    
Maximum Humidity 100    
Minimum Humidity 29    
Precipitation  
Precipitation 0.00 in - - ()
Sea Level Pressure  
Sea Level Pressure 30.18 in    
Wind  
Wind Speed 4 mph ()    
Max Wind Speed 10 mph    
Max Gust Speed -    
Visibility 6.2 miles    
Events      
T = Trace of Precipitation, MM = Missing Value Source: Averaged Metar Reports

Daily Weather History Graph

Daily Weather History Graph

Search for Another Location

Airport or City:

Trip Planner

Search our weather history database for the weather conditions in past years. The results will help you decide how hot, cold, wet, or windy it might be!

Date:

Astronomy

Apr. 18, 2014 Rise Set
Actual Time 6:05 AM BST 8:30 PM BST
Civil Twilight 5:24 AM BST 9:10 PM BST
Nautical Twilight 4:32 AM BST 10:03 PM BST
Astronomical Twilight 3:28 AM BST 11:09 PM BST
Moon No Moon Rise 7:51 AM BST (4/18)
Length of Visible Light 15h 46m
Length of Day
14h 24m
Waning Gibbous, 89% of the Moon is Illuminated
Apr 18
Waning Gibbous
Apr 22
Last Quarter
Apr 29
New
May 7
First Quarter
May 14
Full

Hourly Weather History & Observations

Time (BST) Temp. Windchill Dew Point Humidity Pressure Visibility Wind Dir Wind Speed Gust Speed Precip Events Conditions
12:20 AM 37.4 °F 33.8 °F 32.0 °F 81% 30.15 in - South 4.6 mph - N/A   Clear
12:50 AM 35.6 °F 30.7 °F 32.0 °F 87% 30.15 in 6.2 mi SSW 5.8 mph - N/A   Unknown
1:20 AM 35.6 °F 31.7 °F 32.0 °F 87% 30.15 in - WSW 4.6 mph - N/A   Clear
1:50 AM 35.6 °F - 32.0 °F 87% 30.15 in - Calm Calm - N/A   Clear
2:20 AM 33.8 °F 30.8 °F 30.2 °F 87% 30.15 in - West 3.5 mph - N/A   Clear
2:50 AM 33.8 °F - 32.0 °F 93% 30.18 in - Calm Calm - N/A   Clear
3:20 AM 32.0 °F - 30.2 °F 93% 30.18 in - SSW 2.3 mph - N/A   Clear
3:50 AM 33.8 °F - 30.2 °F 87% 30.18 in - Calm Calm - N/A   Clear
4:20 AM 30.2 °F - 28.4 °F 93% 30.18 in - WNW 2.3 mph - N/A   Clear
4:50 AM 30.2 °F 26.7 °F 28.4 °F 93% 30.18 in - NE 3.5 mph - N/A   Clear
5:20 AM 28.4 °F - 28.4 °F 100% 30.18 in - Calm Calm - N/A   Clear
5:50 AM 30.2 °F - 28.4 °F 93% 30.18 in - Variable 2.3 mph - N/A   Clear
6:20 AM 28.4 °F 24.6 °F 28.4 °F 100% 30.18 in - WSW 3.5 mph - N/A   Clear
6:50 AM 30.2 °F - 28.4 °F 93% 30.21 in - Calm Calm - N/A   Clear
7:20 AM 32.0 °F - 30.2 °F 93% 30.21 in - Calm Calm - N/A   Clear
7:50 AM 35.6 °F - 33.8 °F 93% 30.21 in - Calm Calm - N/A   Clear
8:20 AM 39.2 °F - 33.8 °F 81% 30.21 in - Variable 2.3 mph - N/A   Clear
8:50 AM 41.0 °F - 33.8 °F 76% 30.21 in - Calm Calm - N/A   Clear
9:20 AM 42.8 °F - 33.8 °F 70% 30.21 in - Calm Calm - N/A   Clear
9:50 AM 44.6 °F - 33.8 °F 66% 30.21 in - Calm Calm - N/A   Clear
10:20 AM 46.4 °F - 33.8 °F 62% 30.21 in - Variable 2.3 mph - N/A   Clear
10:50 AM 50.0 °F - 33.8 °F 54% 30.21 in - Variable 3.5 mph - N/A   Clear
11:20 AM 50.0 °F - 33.8 °F 54% 30.21 in - Variable 3.5 mph - N/A   Clear
11:50 AM 51.8 °F - 32.0 °F 47% 30.21 in - Variable 3.5 mph - N/A   Clear
12:20 PM 51.8 °F - 32.0 °F 47% 30.21 in - West 5.8 mph - N/A   Clear
12:50 PM 53.6 °F - 30.2 °F 41% 30.18 in - WSW 6.9 mph - N/A   Clear
1:20 PM 55.4 °F - 32.0 °F 41% 30.18 in - West 6.9 mph - N/A   Clear
1:50 PM 55.4 °F - 33.8 °F 44% 30.18 in - WSW 6.9 mph - N/A   Clear
2:20 PM 55.4 °F - 33.8 °F 44% 30.18 in - SW 6.9 mph - N/A   Clear
2:50 PM 57.2 °F - 32.0 °F 38% 30.18 in - West 5.8 mph - N/A   Clear
3:20 PM 57.2 °F - 35.6 °F 44% 30.18 in - SW 8.1 mph - N/A   Clear
3:50 PM 57.2 °F - 37.4 °F 48% 30.18 in - SW 10.4 mph - N/A   Clear
4:20 PM 57.2 °F - 24.8 °F 29% 30.15 in - WSW 10.4 mph - N/A   Clear
4:50 PM 57.2 °F - 24.8 °F 29% 30.15 in - SW 9.2 mph - N/A   Clear
5:20 PM 57.2 °F - 30.2 °F 36% 30.15 in - WSW 6.9 mph - N/A   Clear
5:50 PM 57.2 °F - 30.2 °F 36% 30.15 in - WSW 8.1 mph - N/A   Clear
6:20 PM 55.4 °F - 28.4 °F 36% 30.15 in - SW 9.2 mph - N/A   Clear
6:50 PM 55.4 °F - 32.0 °F 41% 30.15 in - SW 9.2 mph - N/A   Clear
7:20 PM 53.6 °F - 33.8 °F 47% 30.15 in - SW 8.1 mph - N/A   Clear
7:50 PM 48.2 °F - 33.8 °F 58% 30.15 in - WSW 6.9 mph - N/A   Clear
8:20 PM 46.4 °F 42.9 °F 35.6 °F 66% 30.15 in - SW 6.9 mph - N/A   Clear
8:50 PM 44.6 °F 40.2 °F 35.6 °F 71% 30.15 in - SW 8.1 mph - N/A   Clear
9:20 PM 44.6 °F 41.4 °F 33.8 °F 66% 30.15 in - SW 5.8 mph - N/A   Clear
9:50 PM 44.6 °F 43.1 °F 33.8 °F 66% 30.18 in - Variable 3.5 mph - N/A   Clear
10:20 PM 44.6 °F 42.2 °F 35.6 °F 71% 30.18 in - NW 4.6 mph - N/A   Clear
10:50 PM 42.8 °F 41.1 °F 35.6 °F 76% 30.15 in - West 3.5 mph - N/A   Clear
11:20 PM 42.8 °F - 35.6 °F 76% 30.18 in - Calm Calm - N/A   Clear
11:50 PM 39.2 °F - 35.6 °F 87% 30.18 in - Calm Calm - N/A   Clear